TimeMDT,TemperatureF,Dew PointF,Humidity,Sea Level PressureIn,VisibilityMPH,Wind Direction,Wind SpeedMPH,Gust SpeedMPH,PrecipitationIn,Events,Conditions,WindDirDegrees,DateUTC
12:53 AM,39.0,32.0,76,30.14,10.0,Calm,Calm,-,N/A,,Clear,0,2013-10-20 06:53:00
1:53 AM,36.0,30.9,82,30.14,10.0,West,4.6,-,N/A,,Clear,260,2013-10-20 07:53:00
2:53 AM,37.9,30.9,76,30.13,10.0,SW,3.5,-,N/A,,Clear,230,2013-10-20 08:53:00
3:53 AM,36.0,30.9,82,30.13,10.0,Calm,Calm,-,N/A,,Clear,0,2013-10-20 09:53:00
4:53 AM,33.1,30.9,92,30.14,10.0,Calm,Calm,-,N/A,,Clear,0,2013-10-20 10:53:00
5:53 AM,32.0,30.0,92,30.14,10.0,Calm,Calm,-,N/A,,Clear,0,2013-10-20 11:53:00
6:53 AM,34.0,28.9,82,30.15,10.0,Calm,Calm,-,N/A,,Clear,0,2013-10-20 12:53:00
7:53 AM,33.1,28.9,85,30.17,10.0,WSW,4.6,-,N/A,,Clear,240,2013-10-20 13:53:00
8:53 AM,34.0,30.0,85,30.19,10.0,Calm,Calm,-,N/A,,Clear,0,2013-10-20 14:53:00
9:53 AM,39.9,33.1,77,30.20,10.0,Calm,Calm,-,N/A,,Clear,0,2013-10-20 15:53:00
10:53 AM,46.0,35.1,66,30.19,10.0,Calm,Calm,-,N/A,,Clear,0,2013-10-20 16:53:00
11:53 AM,55.9,36.0,47,30.17,10.0,Calm,Calm,-,N/A,,Clear,0,2013-10-20 17:53:00
12:53 PM,60.1,33.1,36,30.16,10.0,Calm,Calm,-,N/A,,Clear,0,2013-10-20 18:53:00
1:53 PM,66.9,34.0,30,30.13,10.0,North,5.8,-,N/A,,Clear,360,2013-10-20 19:53:00
2:53 PM,69.1,33.1,26,30.10,10.0,NNE,5.8,-,N/A,,Clear,30,2013-10-20 20:53:00
3:53 PM,71.1,33.1,25,30.08,10.0,North,6.9,-,N/A,,Clear,10,2013-10-20 21:53:00
4:53 PM,73.0,33.1,23,30.07,10.0,North,5.8,-,N/A,,Clear,10,2013-10-20 22:53:00
5:53 PM,71.1,33.1,25,30.08,10.0,NNW,12.7,-,N/A,,Clear,330,2013-10-20 23:53:00
6:53 PM,66.0,34.0,30,30.09,9.0,North,5.8,-,N/A,,Clear,360,2013-10-21 00:53:00
7:53 PM,57.9,34.0,41,30.11,10.0,NNW,10.4,-,N/A,,Clear,340,2013-10-21 01:53:00
8:53 PM,59.0,35.1,41,30.11,10.0,NNW,3.5,-,N/A,,Clear,330,2013-10-21 02:53:00
9:53 PM,59.0,36.0,42,30.12,10.0,North,5.8,-,N/A,,Clear,360,2013-10-21 03:53:00
10:53 PM,54.0,36.0,51,30.15,10.0,NNW,4.6,-,N/A,,Clear,330,2013-10-21 04:53:00
11:53 PM,55.0,36.0,49,30.14,10.0,Calm,Calm,-,N/A,,Clear,0,2013-10-21 05:53:00